When you browse on this site, cookies collect data to enhance your experience and personalize the content and advertising you see.
Visit our Privacy Policy to learn more. By continuing to use the site, you agree to this use of cookies and data.
  • In Slovakia
  • List of Countries
  • For 7 days
  • Water Temperature
  • Weather Map
  • Weather Widgets
  • user-avatar
    Login

    Hourly Weather Canberra

    Today, 22 January, Wednesday

    Time Temperature Precipitation Wind Pressure Humidity
    00:00 +15°C° 0 mm 0 mps 705 mmHg 81%
    01:00 +15°C° 0 mm 0 mps 705 mmHg 83%
    02:00 +14°C° 0 mm 0 mps 705 mmHg 84%
    03:00 +14°C° 0 mm 0 mps 705 mmHg 85%
    04:00 +14°C° 0 mm 0 mps 705 mmHg 88%
    05:00 +16°C° 0 mm 1 mps 705 mmHg 81%
    06:00 +19°C° 0 mm 1 mps 706 mmHg 74%
    07:00 +20°C° 0 mm 1 mps 706 mmHg 67%
    08:00 +23°C° 0 mm 2 mps 706 mmHg 55%
    09:00 +25°C° 0 mm 4 mps 706 mmHg 43%
    10:00 +27°C° 0 mm 5 mps 706 mmHg 31%
    11:00 +29°C° 0 mm 5 mps 706 mmHg 28%
    12:00 +30°C° 0 mm 5 mps 705 mmHg 25%
    13:00 +32°C° 0 mm 5 mps 704 mmHg 22%
    14:00 +33°C° 0 mm 5 mps 704 mmHg 22%
    15:00 +33°C° 0 mm 5 mps 703 mmHg 21%
    16:00 +33°C° 0 mm 6 mps 703 mmHg 20%
    17:00 +32°C° 0 mm 5 mps 703 mmHg 22%
    18:00 +29°C° 0 mm 3 mps 703 mmHg 25%
    19:00 +27°C° 0 mm 2 mps 703 mmHg 28%
    20:00 +26°C° 0 mm 2 mps 703 mmHg 30%
    21:00 +24°C° 0 mm 2 mps 702 mmHg 31%
    22:00 +23°C° 0 mm 1 mps 702 mmHg 33%
    23:00 +23°C° 0 mm 2 mps 702 mmHg 33%

    Tomorrow, 23 January, Thursday

    Time Temperature Precipitation Wind Pressure Humidity
    00:00 +21°C° 0 mm 2 mps 701 mmHg 32%
    01:00 +21°C° 0 mm 2 mps 701 mmHg 32%
    02:00 +21°C° 0 mm 2 mps 700 mmHg 31%
    03:00 +21°C° 0 mm 2 mps 699 mmHg 30%
    04:00 +21°C° 0 mm 2 mps 699 mmHg 29%
    05:00 +23°C° 0 mm 4 mps 699 mmHg 27%
    06:00 +25°C° 0 mm 5 mps 699 mmHg 26%
    07:00 +26°C° 0 mm 6 mps 699 mmHg 24%
    08:00 +28°C° 0 mm 8 mps 700 mmHg 26%
    09:00 +31°C° 0 mm 10 mps 700 mmHg 28%
    10:00 +33°C° 0 mm 13 mps 701 mmHg 30%
    11:00 +32°C° 0 mm 12 mps 701 mmHg 35%
    12:00 +29°C° 0 mm 11 mps 700 mmHg 41%
    13:00 +28°C° 0 mm 10 mps 700 mmHg 46%
    14:00 +28°C° 0 mm 10 mps 700 mmHg 46%
    15:00 +28°C° 0 mm 9 mps 700 mmHg 46%
    16:00 +28°C° 0 mm 8 mps 700 mmHg 46%
    17:00 +27°C° 0 mm 7 mps 700 mmHg 46%
    18:00 +26°C° 0 mm 5 mps 701 mmHg 47%
    19:00 +26°C° 0 mm 3 mps 701 mmHg 47%
    20:00 +24°C° 0.1 mm 3 mps 701 mmHg 52%
    21:00 +21°C° 0.1 mm 2 mps 702 mmHg 57%
    22:00 +19°C° 0.1 mm 2 mps 702 mmHg 63%
    23:00 +19°C° 0.1 mm 2 mps 702 mmHg 63%

    Day after tomorrow, 24 January, Friday

    Time Temperature Precipitation Wind Pressure Humidity
    00:00 +19°C° 0.1 mm 1 mps 702 mmHg 64%
    01:00 +19°C° 0.1 mm 1 mps 702 mmHg 64%
    02:00 +19°C° 0 mm 1 mps 702 mmHg 63%
    03:00 +19°C° 0 mm 1 mps 702 mmHg 61%
    04:00 +20°C° 0 mm 1 mps 702 mmHg 60%
    05:00 +19°C° 0 mm 2 mps 703 mmHg 57%
    06:00 +19°C° 0 mm 2 mps 703 mmHg 55%
    07:00 +20°C° 0 mm 2 mps 704 mmHg 52%
    08:00 +22°C° 0 mm 4 mps 704 mmHg 46%
    09:00 +25°C° 0 mm 5 mps 705 mmHg 39%
    10:00 +27°C° 0 mm 6 mps 705 mmHg 33%
    11:00 +28°C° 0 mm 6 mps 705 mmHg 30%
    12:00 +28°C° 0 mm 6 mps 705 mmHg 26%
    13:00 +29°C° 0 mm 6 mps 705 mmHg 23%
    14:00 +29°C° 0 mm 6 mps 705 mmHg 22%
    15:00 +29°C° 0 mm 5 mps 705 mmHg 20%
    16:00 +29°C° 0 mm 4 mps 705 mmHg 19%
    17:00 +27°C° 0 mm 4 mps 705 mmHg 24%
    18:00 +25°C° 0 mm 3 mps 706 mmHg 30%
    19:00 +23°C° 0 mm 2 mps 707 mmHg 35%
    20:00 +20°C° 0 mm 3 mps 707 mmHg 51%
    21:00 +19°C° 0 mm 3 mps 707 mmHg 67%
    22:00 +17°C° 0 mm 3 mps 708 mmHg 82%
    23:00 +17°C° 0 mm 3 mps 708 mmHg 85%

    25 January, Saturday

    Time Temperature Precipitation Wind Pressure Humidity
    00:00 +16°C° 0 mm 2 mps 708 mmHg 88%
    01:00 +16°C° 0 mm 2 mps 707 mmHg 90%
    02:00 +16°C° 0 mm 1 mps 707 mmHg 88%
    03:00 +18°C° 0 mm 1 mps 707 mmHg 86%
    04:00 +18°C° 0 mm 1 mps 707 mmHg 84%
    05:00 +19°C° 0 mm 1 mps 708 mmHg 81%
    06:00 +19°C° 0 mm 1 mps 708 mmHg 79%
    07:00 +20°C° 0 mm 1 mps 708 mmHg 76%
    08:00 +22°C° 0 mm 1 mps 708 mmHg 64%
    09:00 +25°C° 0 mm 1 mps 709 mmHg 53%
    10:00 +27°C° 0 mm 2 mps 709 mmHg 41%
    11:00 +29°C° 0 mm 2 mps 709 mmHg 35%
    12:00 +31°C° 0 mm 2 mps 708 mmHg 29%
    13:00 +33°C° 0 mm 3 mps 708 mmHg 23%
    14:00 +33°C° 0 mm 3 mps 708 mmHg 22%
    15:00 +34°C° 0 mm 3 mps 707 mmHg 21%
    16:00 +34°C° 0 mm 3 mps 707 mmHg 20%
    17:00 +30°C° 0 mm 3 mps 707 mmHg 31%
    18:00 +28°C° 0 mm 3 mps 707 mmHg 42%
    19:00 +25°C° 0 mm 3 mps 707 mmHg 53%
    20:00 +24°C° 0 mm 2 mps 707 mmHg 66%
    21:00 +21°C° 0 mm 2 mps 708 mmHg 79%
    22:00 +20°C° 0 mm 2 mps 708 mmHg 92%
    23:00 +20°C° 0 mm 2 mps 708 mmHg 91%

    26 January, Sunday

    Time Temperature Precipitation Wind Pressure Humidity
    00:00 +21°C° 0 mm 1 mps 708 mmHg 91%
    01:00 +22°C° 0 mm 1 mps 708 mmHg 90%
    02:00 +21°C° 0 mm 1 mps 707 mmHg 91%
    03:00 +21°C° 0 mm 1 mps 707 mmHg 91%
    04:00 +19°C° 0 mm 0 mps 707 mmHg 92%
    05:00 +20°C° 0 mm 0 mps 707 mmHg 88%
    06:00 +21°C° 0 mm 0 mps 708 mmHg 83%
    07:00 +22°C° 0 mm 0 mps 708 mmHg 79%
    08:00 +26°C° 0 mm 1 mps 709 mmHg 61%
    09:00 +29°C° 0 mm 1 mps 709 mmHg 44%
    10:00 +31°C° 0 mm 2 mps 709 mmHg 27%
    11:00 +33°C° 0 mm 3 mps 709 mmHg 23%
    12:00 +35°C° 0 mm 3 mps 708 mmHg 19%
    13:00 +36°C° 0 mm 4 mps 708 mmHg 15%
    14:00 +36°C° 0 mm 4 mps 707 mmHg 15%
    15:00 +36°C° 0 mm 3 mps 707 mmHg 15%
    16:00 +36°C° 0 mm 3 mps 707 mmHg 15%
    17:00 +33°C° 0 mm 4 mps 707 mmHg 29%
    18:00 +29°C° 0 mm 4 mps 707 mmHg 43%
    19:00 +26°C° 0 mm 4 mps 707 mmHg 58%
    20:00 +25°C° 0 mm 3 mps 707 mmHg 68%
    21:00 +24°C° 0 mm 3 mps 707 mmHg 78%
    22:00 +22°C° 0 mm 3 mps 708 mmHg 87%
    23:00 +22°C° 0 mm 3 mps 708 mmHg 88%

    27 January, Monday

    Time Temperature Precipitation Wind Pressure Humidity
    00:00 +21°C° 0 mm 2 mps 707 mmHg 90%
    01:00 +21°C° 0 mm 2 mps 707 mmHg 91%
    02:00 +21°C° 0 mm 2 mps 707 mmHg 90%
    03:00 +22°C° 0 mm 1 mps 707 mmHg 89%
    04:00 +22°C° 0 mm 1 mps 707 mmHg 88%
    05:00 +23°C° 0 mm 1 mps 707 mmHg 85%
    06:00 +23°C° 0 mm 1 mps 707 mmHg 82%
    07:00 +24°C° 0 mm 1 mps 707 mmHg 79%
    08:00 +26°C° 0 mm 2 mps 707 mmHg 65%
    09:00 +29°C° 0 mm 3 mps 707 mmHg 51%
    10:00 +32°C° 0 mm 4 mps 708 mmHg 37%
    11:00 +34°C° 0 mm 4 mps 707 mmHg 31%
    12:00 +35°C° 0 mm 5 mps 706 mmHg 25%
    13:00 +37°C° 0 mm 5 mps 706 mmHg 19%
    14:00 +37°C° 0 mm 5 mps 705 mmHg 18%
    15:00 +37°C° 0 mm 5 mps 705 mmHg 17%
    16:00 +37°C° 0 mm 5 mps 704 mmHg 16%
    17:00 +35°C° 0 mm 4 mps 704 mmHg 18%
    18:00 +33°C° 0 mm 3 mps 704 mmHg 21%
    19:00 +30°C° 0 mm 2 mps 704 mmHg 23%
    20:00 +28°C° 0 mm 2 mps 704 mmHg 25%
    21:00 +27°C° 0 mm 1 mps 704 mmHg 28%
    22:00 +25°C° 0 mm 1 mps 704 mmHg 30%
    23:00 +25°C° 0 mm 2 mps 704 mmHg 39%
    Show more